Terug naar catalogus

KUIPER-00270

ActiefCommunicatieLEO
NORAD 67791·PAYLOAD·🇺🇸 United States

Gelanceerd Feb 12, 2026 vanaf Guiana Space Centre

Loading…

Volgende Passages (komende 24 uur)

TLE

VersSource: CelesTrak SupGP

Epoch: Sep 14, 2026, 13:04 UTC

1 67791C 26030AD  26257.54486111 -.00003139  00000+0 -41097-3 0  2571
2 67791  51.8980  65.4975 0000618  97.6819 139.8299 14.79924970    18

Volg KUIPER-00270 in realtime met AllMySat

Download on the App Store